| time (UTC) | temp F | wind direction | speed MPH | gust MPH | rain 1hr in | rain 24hr in | rain mn in | humidity % | barometer mb |
| 20260906180726 | 76 | 355 | 5.0 | 10.0 | 0.00 | 0.00 | 0.00 | 45 | 1018.0 |
| 20260906180048 | 76 | 357 | 4.0 | 10.0 | 0.00 | 0.00 | 0.00 | 46 | 1018.0 |
| 20260906175407 | 0 | 344 | 7.0 | 7.0 | 0.00 | 0.00 | 0.00 | ||
| 20260906174621 | 76 | 359 | 1.0 | 9.0 | 0.00 | 0.00 | 0.00 | 46 | 1018.0 |
| 20260906173940 | 74 | 360 | 1.0 | 10.0 | 0.00 | 0.00 | 0.00 | 46 | 1018.0 |
| 20260906173300 | 76 | 358 | 2.0 | 11.0 | 0.00 | 0.00 | 0.00 | 46 | 1018.0 |
| 20260906172621 | 76 | 354 | 1.0 | 9.0 | 0.00 | 0.00 | 0.00 | 46 | 1018.0 |
| 20260906171941 | 76 | 355 | 3.0 | 10.0 | 0.00 | 0.00 | 0.00 | 48 | 1018.0 |
| 20260906171301 | 75 | 355 | 5.0 | 10.0 | 0.00 | 0.00 | 0.00 | 47 | 1018.1 |
| 20260906170621 | 75 | 353 | 3.0 | 10.0 | 0.00 | 0.00 | 0.00 | 49 | 1018.0 |
| 20260906165942 | 0 | 356 | 5.0 | 4.0 | 0.00 | 0.00 | 0.00 | ||
| 20260906165152 | 75 | 357 | 1.0 | 6.0 | 0.00 | 0.00 | 0.00 | 51 | 1018.1 |
| 20260906164512 | 0 | 0 | 4.0 | 4.0 | 0.00 | 0.00 | 0.00 | ||
| 20260906163806 | 75 | 355 | 4.0 | 10.0 | 0.00 | 0.00 | 0.00 | 47 | 1018.2 |
| 20260906163131 | 74 | 354 | 6.0 | 10.0 | 0.00 | 0.00 | 0.00 | 49 | 1018.3 |
| 20260906162447 | 73 | 356 | 0.0 | 10.0 | 0.00 | 0.00 | 0.00 | 53 | 1018.3 |
| 20260906161806 | 71 | 354 | 3.0 | 9.0 | 0.00 | 0.00 | 0.00 | 58 | 1018.4 |
| 20260906161127 | 71 | 357 | 4.0 | 9.0 | 0.00 | 0.00 | 0.00 | 56 | 1018.4 |
| 20260906160447 | 0 | 354 | 1.0 | 4.0 | 0.00 | 0.00 | 0.00 | ||
| 20260906155545 | 75 | 354 | 0.0 | 11.0 | 0.00 | 0.00 | 0.00 | 49 | 1018.3 |
| 20260906154915 | 74 | 357 | 2.0 | 11.0 | 0.00 | 0.00 | 0.00 | 51 | 1018.3 |
| 20260906154227 | 73 | 356 | 0.0 | 9.0 | 0.00 | 0.00 | 0.00 | 50 | 1018.4 |
| 20260906153325 | 74 | 356 | 1.0 | 8.0 | 0.00 | 0.00 | 0.00 | 52 | 1018.5 |
| 20260906152644 | 0 | 356 | 4.0 | 10.0 | 0.00 | 0.00 | 0.00 | ||
| 20260906151906 | 71 | 357 | 4.0 | 10.0 | 0.00 | 0.00 | 0.00 | 59 | 1018.4 |
| 20260906151216 | 0 | 357 | 3.0 | 10.0 | 0.00 | 0.00 | 0.00 | ||
| 20260906150202 | 73 | 357 | 0.0 | 5.0 | 0.00 | 0.00 | 0.00 | 54 | 1018.4 |
| 20260906145522 | 0 | 356 | 0.0 | 8.0 | 0.00 | 0.00 | 0.00 | ||
| 20260906144732 | 72 | 354 | 1.0 | 6.0 | 0.00 | 0.00 | 0.00 | 58 | 1018.3 |
| 20260906144051 | 0 | 356 | 0.0 | 6.0 | 0.00 | 0.00 | 0.00 | ||
| 20260906143150 | 69 | 356 | 2.0 | 6.0 | 0.00 | 0.00 | 0.00 | 64 | 1018.2 |
| 20260906142515 | 69 | 355 | 0.0 | 8.0 | 0.00 | 0.00 | 0.00 | 64 | 1018.3 |
| 20260906141830 | 69 | 356 | 0.0 | 10.0 | 0.00 | 0.00 | 0.00 | 64 | 1018.1 |
| 20260906141155 | 69 | 355 | 0.0 | 10.0 | 0.00 | 0.00 | 0.00 | 65 | 1018.1 |
| 20260906140515 | 70 | 354 | 0.0 | 10.0 | 0.00 | 0.00 | 0.00 | 64 | 1018.1 |
| 20260906135830 | 0 | 356 | 4.0 | 10.0 | 0.00 | 0.00 | 0.00 | ||
| 20260906134930 | 69 | 355 | 0.0 | 4.0 | 0.00 | 0.00 | 0.00 | 67 | 1017.9 |
| 20260906134250 | 68 | 355 | 0.0 | 9.0 | 0.00 | 0.00 | 0.00 | 71 | 1017.9 |
| 20260906133610 | 68 | 355 | 2.0 | 9.0 | 0.00 | 0.00 | 0.00 | 68 | 1018.0 |
| 20260906132930 | 70 | 352 | 0.0 | 0.0 | 0.00 | 0.00 | 0.00 | 66 | 1018.0 |
| 20260906132251 | 0 | 352 | 0.0 | 0.0 | 0.00 | 0.00 | 0.00 | ||
| 20260906131502 | 0 | 356 | 0.0 | 0.0 | 0.00 | 0.00 | 0.00 | ||
| 20260906130712 | 66 | 355 | 0.0 | 0.0 | 0.00 | 0.00 | 0.00 | 73 | 1018.0 |
| 20260906130032 | 66 | 355 | 0.0 | 0.0 | 0.00 | 0.00 | 0.00 | 72 | 1017.9 |
| 20260906125353 | 67 | 355 | 0.0 | 0.0 | 0.00 | 0.00 | 0.00 | 69 | 1017.7 |
| 20260906124718 | 68 | 356 | 0.0 | 0.0 | 0.00 | 0.00 | 0.00 | 69 | 1017.8 |
| 20260906124033 | 0 | 355 | 0.0 | 0.0 | 0.00 | 0.00 | 0.00 | ||
| 20260906123245 | 66 | 358 | 0.0 | 0.0 | 0.00 | 0.00 | 0.00 | 70 | 1017.6 |
| 20260906122452 | 0 | 356 | 0.0 | 0.0 | 0.00 | 0.00 | 0.00 | ||
| 20260906121550 | 65 | 355 | 0.0 | 0.0 | 0.00 | 0.00 | 0.00 | 72 | 1017.6 |
| 20260906120911 | 64 | 357 | 0.0 | 0.0 | 0.00 | 0.00 | 0.00 | 73 | 1017.6 |
| 20260906120230 | 64 | 356 | 0.0 | 0.0 | 0.00 | 0.00 | 0.00 | 75 | 1017.5 |
| 20260906115550 | 62 | 356 | 0.0 | 0.0 | 0.00 | 0.00 | 0.00 | 77 | 1017.5 |
| 20260906114910 | 62 | 355 | 0.0 | 0.0 | 0.00 | 0.00 | 0.00 | 78 | 1017.4 |
| 20260906114230 | 61 | 357 | 0.0 | 0.0 | 0.00 | 0.00 | 0.00 | 80 | 1017.4 |
| 20260906113551 | 60 | 355 | 0.0 | 0.0 | 0.00 | 0.00 | 0.00 | 81 | 1017.4 |
| 20260906112910 | 0 | 357 | 0.0 | 0.0 | 0.00 | 0.00 | 0.00 | ||
| 20260906112118 | 0 | 356 | 0.0 | 0.0 | 0.00 | 0.00 | 0.00 | ||
| 20260906111326 | 59 | 355 | 0.0 | 0.0 | 0.00 | 0.00 | 0.00 | 86 | 1017.1 |
| 20260906110535 | 59 | 357 | 0.0 | 0.0 | 0.00 | 0.00 | 0.00 | 86 | 1017.1 |
| 20260906105856 | 58 | 355 | 0.0 | 0.0 | 0.00 | 0.00 | 0.00 | 86 | 1016.9 |
| 20260906105215 | 58 | 350 | 0.0 | 0.0 | 0.00 | 0.00 | 0.00 | 86 | 1016.9 |
| 20260906104427 | 58 | 358 | 0.0 | 0.0 | 0.00 | 0.00 | 0.00 | 85 | 1016.8 |
| 20260906103746 | 58 | 357 | 0.0 | 0.0 | 0.00 | 0.00 | 0.00 | 85 | 1016.8 |
| 20260906103106 | 0 | 359 | 0.0 | 0.0 | 0.00 | 0.00 | 0.00 | ||
| 20260906102317 | 59 | 355 | 0.0 | 0.0 | 0.00 | 0.00 | 0.00 | 85 | 1016.7 |
| 20260906101638 | 0 | 0 | 0.0 | 0.0 | 0.00 | 0.00 | 0.00 | ||
| 20260906100738 | 59 | 356 | 0.0 | 0.0 | 0.00 | 0.00 | 0.00 | 84 | 1016.7 |
| 20260906100059 | 59 | 355 | 0.0 | 0.0 | 0.00 | 0.00 | 0.00 | 83 | 1016.5 |
| 20260906095420 | 0 | 357 | 0.0 | 0.0 | 0.00 | 0.00 | 0.00 | ||
| 20260906094520 | 0 | 356 | 0.0 | 0.0 | 0.00 | 0.00 | 0.00 | ||
| 20260906093621 | 60 | 358 | 0.0 | 0.0 | 0.00 | 0.00 | 0.00 | 85 | 1016.4 |
| 20260906092941 | 59 | 356 | 0.0 | 0.0 | 0.00 | 0.00 | 0.00 | 85 | 1016.3 |
| 20260906092300 | 59 | 357 | 0.0 | 0.0 | 0.00 | 0.00 | 0.00 | 86 | 1016.1 |
| 20260906091620 | 59 | 357 | 0.0 | 0.0 | 0.00 | 0.00 | 0.00 | 86 | 1016.1 |
| 20260906090940 | 59 | 355 | 0.0 | 0.0 | 0.00 | 0.00 | 0.00 | 86 | 1016.0 |
| 20260906090300 | 0 | 350 | 0.0 | 0.0 | 0.00 | 0.00 | 0.00 | ||
| 20260906085512 | 0 | 358 | 0.0 | 0.0 | 0.00 | 0.00 | 0.00 | ||
| 20260906084724 | 0 | 357 | 0.0 | 0.0 | 0.00 | 0.00 | 0.00 | ||
| 20260906083825 | 0 | 354 | 0.0 | 0.0 | 0.00 | 0.00 | 0.00 | ||
| 20260906083028 | 59 | 356 | 0.0 | 0.0 | 0.00 | 0.00 | 0.00 | 87 | 1015.5 |
| 20260906082348 | 0 | 355 | 0.0 | 0.0 | 0.00 | 0.00 | 0.00 | ||
| 20260906081222 | 59 | 356 | 0.0 | 0.0 | 0.00 | 0.00 | 0.00 | 86 | 1015.4 |
| 20260906080542 | 60 | 357 | 0.0 | 0.0 | 0.00 | 0.00 | 0.00 | 85 | 1015.4 |
| 20260906075901 | 60 | 357 | 0.0 | 0.0 | 0.00 | 0.00 | 0.00 | 85 | 1015.3 |
| 20260906075221 | 0 | 357 | 0.0 | 0.0 | 0.00 | 0.00 | 0.00 | ||
| 20260906074432 | 60 | 355 | 0.0 | 0.0 | 0.00 | 0.00 | 0.00 | 83 | 1015.5 |
| 20260906073752 | 0 | 354 | 0.0 | 0.0 | 0.00 | 0.00 | 0.00 | ||
| 20260906073003 | 0 | 353 | 0.0 | 0.0 | 0.00 | 0.00 | 0.00 | ||
| 20260906072102 | 61 | 356 | 0.0 | 0.0 | 0.00 | 0.00 | 0.00 | 83 | 1015.3 |
| 20260906071422 | 0 | 357 | 0.0 | 0.0 | 0.00 | 0.00 | 0.00 | ||
| 20260906070632 | 61 | 356 | 0.0 | 0.0 | 0.00 | 0.00 | 0.00 | 84 | 1015.2 |
| 20260906065952 | 61 | 355 | 0.0 | 0.0 | 0.00 | 0.00 | 0.00 | 83 | 1015.3 |
| 20260906065312 | 0 | 358 | 0.0 | 0.0 | 0.00 | 0.00 | 0.00 | ||
| 20260906064522 | 61 | 355 | 0.0 | 0.0 | 0.00 | 0.00 | 0.00 | 84 | 1015.4 |
| 20260906063844 | 0 | 357 | 0.0 | 0.0 | 0.00 | 0.00 | 0.00 | ||
| 20260906063052 | 0 | 360 | 0.0 | 0.0 | 0.00 | 0.00 | 0.00 | ||
| 20260906062301 | 62 | 357 | 0.0 | 0.0 | 0.00 | 0.00 | 0.00 | 80 | 1015.3 |
| 20260906061622 | 63 | 355 | 0.0 | 0.0 | 0.00 | 0.00 | 0.00 | 80 | 1015.3 |
| 20260906060942 | 0 | 356 | 0.0 | 0.0 | 0.00 | 0.00 | 0.00 | ||
| 20260906060038 | 63 | 356 | 0.0 | 0.0 | 0.00 | 0.00 | 0.00 | 79 | 1015.2 |
| 20260906055358 | 64 | 356 | 0.0 | 0.0 | 0.00 | 0.00 | 0.00 | 76 | 1015.3 |
| 20260906054719 | 64 | 359 | 0.0 | 0.0 | 0.00 | 0.00 | 0.00 | 75 | 1015.3 |
| 20260906054041 | 0 | 352 | 0.0 | 0.0 | 0.00 | 0.00 | 0.00 | ||
| 20260906053247 | 0 | 356 | 0.0 | 0.0 | 0.00 | 0.00 | 0.00 | ||
| 20260906052344 | 64 | 356 | 0.0 | 0.0 | 0.00 | 0.00 | 0.00 | 75 | 1015.3 |
| 20260906051705 | 64 | 356 | 0.0 | 0.0 | 0.00 | 0.00 | 0.00 | 75 | 1015.2 |
| 20260906051025 | 64 | 357 | 0.0 | 0.0 | 0.00 | 0.00 | 0.00 | 74 | 1015.1 |
| 20260906050345 | 64 | 357 | 0.0 | 0.0 | 0.00 | 0.00 | 0.00 | 73 | 1015.2 |
| 20260906045705 | 0 | 355 | 0.0 | 0.0 | 0.00 | 0.00 | 0.00 | ||
| 20260906044914 | 64 | 358 | 0.0 | 0.0 | 0.00 | 0.00 | 0.00 | 74 | 1015.2 |
| 20260906044234 | 64 | 355 | 0.0 | 0.0 | 0.00 | 0.00 | 0.00 | 74 | 1015.2 |
| 20260906043554 | 64 | 358 | 0.0 | 0.0 | 0.00 | 0.00 | 0.00 | 74 | 1015.2 |
| 20260906042914 | 0 | 356 | 0.0 | 0.0 | 0.00 | 0.00 | 0.00 | ||
| 20260906042123 | 64 | 355 | 0.0 | 0.0 | 0.00 | 0.00 | 0.00 | 73 | 1015.1 |
| 20260906041444 | 65 | 356 | 0.0 | 0.0 | 0.00 | 0.00 | 0.00 | 72 | 1015.1 |
| 20260906040804 | 64 | 354 | 0.0 | 0.0 | 0.00 | 0.00 | 0.00 | 72 | 1015.1 |
| 20260906040124 | 64 | 355 | 0.0 | 0.0 | 0.00 | 0.00 | 0.00 | 72 | 1015.1 |
| 20260906035444 | 65 | 354 | 0.0 | 0.0 | 0.00 | 0.00 | 0.00 | 71 | 1015.0 |
| 20260906034804 | 0 | 356 | 0.0 | 0.0 | 0.00 | 0.00 | 0.00 | ||
| 20260906033751 | 64 | 357 | 0.0 | 0.0 | 0.00 | 0.00 | 0.00 | 72 | 1015.1 |
| 20260906033111 | 0 | 355 | 0.0 | 0.0 | 0.00 | 0.00 | 0.00 | ||
| 20260906032322 | 64 | 358 | 0.0 | 0.0 | 0.00 | 0.00 | 0.00 | 72 | 1015.0 |
| 20260906031642 | 0 | 354 | 0.0 | 0.0 | 0.00 | 0.00 | 0.00 | ||
| 20260906030852 | 0 | 354 | 0.0 | 0.0 | 0.00 | 0.00 | 0.00 | ||
| 20260906030105 | 65 | 357 | 0.0 | 0.0 | 0.00 | 0.00 | 0.00 | 69 | 1014.9 |
| 20260906025202 | 65 | 356 | 0.0 | 0.0 | 0.00 | 0.00 | 0.00 | 70 | 1014.8 |
| 20260906024523 | 65 | 357 | 0.0 | 0.0 | 0.00 | 0.00 | 0.00 | 69 | 1014.8 |
| 20260906023843 | 0 | 352 | 0.0 | 0.0 | 0.00 | 0.00 | 0.00 | ||
| 20260906023054 | 65 | 356 | 0.0 | 0.0 | 0.00 | 0.00 | 0.00 | 69 | 1014.9 |
| 20260906022415 | 65 | 357 | 0.0 | 0.0 | 0.00 | 0.00 | 0.00 | 68 | 1014.9 |
| 20260906021734 | 0 | 357 | 0.0 | 0.0 | 0.00 | 0.00 | 0.00 | ||
| 20260906020944 | 66 | 355 | 0.0 | 0.0 | 0.00 | 0.00 | 0.00 | 64 | 1014.8 |
| 20260906020306 | 66 | 356 | 0.0 | 0.0 | 0.00 | 0.00 | 0.00 | 63 | 1014.8 |
| 20260906015517 | 0 | 356 | 0.0 | 0.0 | 0.00 | 0.00 | 0.00 | ||
| 20260906014727 | 0 | 356 | 0.0 | 0.0 | 0.00 | 0.00 | 0.00 | ||
| 20260906013830 | 67 | 356 | 0.0 | 0.0 | 0.00 | 0.00 | 0.00 | 61 | 1014.7 |
| 20260906013152 | 67 | 355 | 0.0 | 0.0 | 0.00 | 0.00 | 0.00 | 61 | 1014.7 |
| 20260906012515 | 0 | 357 | 0.0 | 0.0 | 0.00 | 0.00 | 0.00 | ||
| 20260906011722 | 0 | 359 | 0.0 | 0.0 | 0.00 | 0.00 | 0.00 | ||
| 20260906010933 | 68 | 357 | 0.0 | 0.0 | 0.00 | 0.00 | 0.00 | 58 | 1014.6 |
| 20260906010254 | 68 | 357 | 0.0 | 0.0 | 0.00 | 0.00 | 0.00 | 57 | 1014.5 |
| 20260906005613 | 0 | 358 | 0.0 | 0.0 | 0.00 | 0.00 | 0.00 | ||
| 20260906004824 | 70 | 354 | 0.0 | 0.0 | 0.00 | 0.00 | 0.00 | 54 | 1014.4 |
| 20260906004145 | 0 | 360 | 0.0 | 0.0 | 0.00 | 0.00 | 0.00 | ||
| 20260906003354 | 70 | 357 | 0.0 | 0.0 | 0.00 | 0.00 | 0.00 | 54 | 1014.3 |
| 20260906002714 | 70 | 356 | 0.0 | 0.0 | 0.00 | 0.00 | 0.00 | 53 | 1014.3 |
| 20260906002034 | 70 | 355 | 0.0 | 0.0 | 0.00 | 0.00 | 0.00 | 54 | 1014.3 |
| 20260906001354 | 0 | 359 | 0.0 | 0.0 | 0.00 | 0.00 | 0.00 | ||
| 20260906000455 | 0 | 353 | 0.0 | 0.0 | 0.00 | 0.00 | 0.00 | ||
| 20260905235706 | 71 | 356 | 0.0 | 0.0 | 0.00 | 0.00 | 0.00 | 50 | 1014.2 |
| 20260905235025 | 71 | 355 | 0.0 | 0.0 | 0.00 | 0.00 | 0.00 | 50 | 1014.1 |
| 20260905234012 | 72 | 358 | 0.0 | 3.0 | 0.00 | 0.00 | 0.00 | 48 | 1014.1 |
| 20260905233333 | 72 | 356 | 0.0 | 4.0 | 0.00 | 0.00 | 0.00 | 46 | 1014.1 |
| 20260905232652 | 73 | 357 | 0.0 | 4.0 | 0.00 | 0.00 | 0.00 | 46 | 1014.2 |
| 20260905232014 | 73 | 355 | 0.0 | 0.0 | 0.00 | 0.00 | 0.00 | 44 | 1014.1 |
| 20260905231332 | 74 | 355 | 0.0 | 3.0 | 0.00 | 0.00 | 0.00 | 44 | 1014.1 |
| 20260905230653 | 0 | 355 | 0.0 | 4.0 | 0.00 | 0.00 | 0.00 | ||
| 20260905225852 | 74 | 355 | 0.0 | 0.0 | 0.00 | 0.00 | 0.00 | 44 | 1014.1 |
| 20260905225214 | 0 | 356 | 0.0 | 5.0 | 0.00 | 0.00 | 0.00 | ||
| 20260905224308 | 0 | 355 | 0.0 | 5.0 | 0.00 | 0.00 | 0.00 | ||
| 20260905223517 | 75 | 357 | 3.0 | 7.0 | 0.00 | 0.00 | 0.00 | 43 | 1014.1 |
| 20260905222837 | 76 | 355 | 0.0 | 8.0 | 0.00 | 0.00 | 0.00 | 41 | 1014.2 |
| 20260905222156 | 76 | 355 | 3.0 | 7.0 | 0.00 | 0.00 | 0.00 | 42 | 1014.1 |
| 20260905221516 | 76 | 354 | 2.0 | 8.0 | 0.00 | 0.00 | 0.00 | 42 | 1014.2 |
| 20260905220836 | 75 | 354 | 5.0 | 8.0 | 0.00 | 0.00 | 0.00 | 43 | 1014.1 |
| 20260905220157 | 0 | 353 | 2.0 | 4.0 | 0.00 | 0.00 | 0.00 | ||
| 20260905215409 | 0 | 357 | 0.0 | 8.0 | 0.00 | 0.00 | 0.00 | ||
| 20260905214611 | 0 | 360 | 3.0 | 10.0 | 0.00 | 0.00 | 0.00 | ||
| 20260905213828 | 77 | 355 | 0.0 | 8.0 | 0.00 | 0.00 | 0.00 | 41 | 1013.9 |
| 20260905213144 | 76 | 354 | 2.0 | 8.0 | 0.00 | 0.00 | 0.00 | 42 | 1013.9 |
| 20260905212503 | 0 | 357 | 0.0 | 9.0 | 0.00 | 0.00 | 0.00 | ||
| 20260905211710 | 0 | 357 | 5.0 | 5.0 | 0.00 | 0.00 | 0.00 | ||
| 20260905210920 | 76 | 356 | 1.0 | 8.0 | 0.00 | 0.00 | 0.00 | 45 | 1013.7 |
| 20260905210240 | 0 | 358 | 0.0 | 8.0 | 0.00 | 0.00 | 0.00 | ||
| 20260905205310 | 0 | 351 | 0.0 | 7.0 | 0.00 | 0.00 | 0.00 | ||
| 20260905204602 | 76 | 359 | 2.0 | 7.0 | 0.00 | 0.00 | 0.00 | 45 | 1013.8 |
| 20260905203932 | 76 | 356 | 0.0 | 0.0 | 0.00 | 0.00 | 0.00 | 48 | 1013.7 |
| 20260905203243 | 74 | 356 | 0.0 | 6.0 | 0.00 | 0.00 | 0.00 | 49 | 1013.7 |
| 20260905202603 | 74 | 358 | 0.0 | 7.0 | 0.00 | 0.00 | 0.00 | 47 | 1013.7 |
| 20260905201928 | 0 | 356 | 4.0 | 4.0 | 0.00 | 0.00 | 0.00 | ||
| 20260905201017 | 0 | 356 | 1.0 | 3.0 | 0.00 | 0.00 | 0.00 | ||
| 20260905200015 | 75 | 357 | 4.0 | 9.0 | 0.00 | 0.00 | 0.00 | 43 | 1013.9 |
| 20260905195330 | 75 | 356 | 0.0 | 4.0 | 0.00 | 0.00 | 0.00 | 45 | 1013.8 |
| 20260905194651 | 0 | 360 | 0.0 | 9.0 | 0.00 | 0.00 | 0.00 | ||
| 20260905193900 | 0 | 357 | 3.0 | 4.0 | 0.00 | 0.00 | 0.00 | ||
| 20260905192833 | 74 | 356 | 6.0 | 10.0 | 0.00 | 0.00 | 0.00 | 46 | 1013.9 |
| 20260905192153 | 0 | 352 | 5.0 | 4.0 | 0.00 | 0.00 | 0.00 | ||
| 20260905191402 | 75 | 355 | 5.0 | 8.0 | 0.00 | 0.00 | 0.00 | 43 | 1013.9 |
| 20260905190727 | 75 | 358 | 0.0 | 7.0 | 0.00 | 0.00 | 0.00 | 44 | 1014.1 |
| 20260905190043 | 0 | 356 | 6.0 | 6.0 | 0.00 | 0.00 | 0.00 | ||
| 20260905185255 | 76 | 357 | 4.0 | 9.0 | 0.00 | 0.00 | 0.00 | 45 | 1014.3 |
| 20260905184616 | 75 | 357 | 3.0 | 4.0 | 0.00 | 0.00 | 0.00 | 44 | 1014.3 |
| 20260905183823 | 74 | 358 | 5.0 | 10.0 | 0.00 | 0.00 | 0.00 | 47 | 1014.2 |
| 20260905183154 | 75 | 355 | 4.0 | 11.0 | 0.00 | 0.00 | 0.00 | 48 | 1014.2 |
| 20260905182503 | 74 | 356 | 7.0 | 11.0 | 0.00 | 0.00 | 0.00 | 48 | 1014.1 |
| 20260905181824 | 0 | 355 | 7.0 | 9.0 | 0.00 | 0.00 | 0.00 | ||
| 20260905181116 | 74 | 357 | 0.0 | 10.0 | 0.00 | 0.00 | 0.00 | 48 | 1014.0 |